TimeEDT,TemperatureF,Dew PointF,Humidity,Sea Level PressureIn,VisibilityMPH,Wind Direction,Wind SpeedMPH,Gust SpeedMPH,PrecipitationIn,Events,Conditions,WindDirDegrees,DateUTC
12:54 AM,61.0,55.0,81,30.11,10.0,SW,3.5,-,N/A,,Clear,220,2013-09-20 04:54:00
1:54 AM,59.0,54.0,83,30.11,10.0,Calm,Calm,-,N/A,,Clear,0,2013-09-20 05:54:00
2:54 AM,55.9,53.1,90,30.11,10.0,Calm,Calm,-,N/A,,Clear,0,2013-09-20 06:54:00
3:54 AM,55.9,52.0,87,30.11,10.0,Calm,Calm,-,N/A,,Clear,0,2013-09-20 07:54:00
4:54 AM,55.0,52.0,89,30.11,10.0,Calm,Calm,-,N/A,,Clear,0,2013-09-20 08:54:00
5:54 AM,54.0,51.1,90,30.12,10.0,Calm,Calm,-,N/A,,Clear,0,2013-09-20 09:54:00
6:54 AM,54.0,52.0,93,30.12,9.0,Calm,Calm,-,N/A,,Clear,0,2013-09-20 10:54:00
7:54 AM,59.0,54.0,83,30.11,10.0,Calm,Calm,-,N/A,,Clear,0,2013-09-20 11:54:00
8:54 AM,64.0,57.9,80,30.11,9.0,Calm,Calm,-,N/A,,Clear,0,2013-09-20 12:54:00
9:54 AM,70.0,59.0,68,30.12,10.0,Calm,Calm,-,N/A,,Clear,0,2013-09-20 13:54:00
10:54 AM,72.0,59.0,64,30.11,10.0,Variable,3.5,-,N/A,,Clear,0,2013-09-20 14:54:00
11:54 AM,75.0,59.0,57,30.10,10.0,Calm,Calm,-,N/A,,Clear,0,2013-09-20 15:54:00
12:54 PM,77.0,57.9,52,30.08,10.0,SE,6.9,-,N/A,,Scattered Clouds,140,2013-09-20 16:54:00
1:54 PM,78.1,55.9,46,30.06,10.0,SW,4.6,-,N/A,,Partly Cloudy,220,2013-09-20 17:54:00
2:54 PM,79.0,55.0,44,30.05,10.0,SW,5.8,-,N/A,,Clear,230,2013-09-20 18:54:00
3:54 PM,79.0,55.0,44,30.03,10.0,Variable,6.9,-,N/A,,Clear,0,2013-09-20 19:54:00
4:54 PM,79.0,55.9,45,30.01,10.0,Calm,Calm,-,N/A,,Clear,0,2013-09-20 20:54:00
5:54 PM,78.1,55.0,45,30.01,10.0,Variable,4.6,-,N/A,,Clear,0,2013-09-20 21:54:00
6:54 PM,75.9,55.9,50,30.01,10.0,South,3.5,-,N/A,,Clear,190,2013-09-20 22:54:00
7:54 PM,72.0,57.9,61,30.01,10.0,Variable,4.6,-,N/A,,Clear,0,2013-09-20 23:54:00
8:54 PM,69.1,57.9,68,30.02,10.0,Variable,3.5,-,N/A,,Clear,0,2013-09-21 00:54:00
9:54 PM,66.9,57.0,70,30.03,10.0,South,3.5,-,N/A,,Clear,170,2013-09-21 01:54:00
10:54 PM,64.9,57.0,75,30.03,10.0,Variable,3.5,-,N/A,,Clear,0,2013-09-21 02:54:00
11:54 PM,64.0,57.9,80,30.03,10.0,Calm,Calm,-,N/A,,Clear,0,2013-09-21 03:54:00